Location: B
(0.0000°N, 0.0000°E)
Time: 20:18:46
(UTC+02:00)

Amateur Radio Satellites - All Passes

Search period start: 01 October 2014 19:48
Search period end: 02 October 2014 19:48
Location: B, 0.0000°N, 0.0000°E

Satellite Date Start Highest point End Downlink Frequencies (MHz)
Time Altitude Azimuth
SO-50 01 Oct 19:57:53 20:00:51 18° 293° (WNW) 20:03:50 436.795 FM
ISS 01 Oct 20:18:16 20:21:24 38° 126° (SE) 20:24:30 145.800 FM
JAS-2 01 Oct 20:22:25 20:26:27 22° 256° (WSW) 20:30:21 435.800 - 435.900 CW/SSB, 435.910 FM
UOSAT-12 01 Oct 20:22:29 20:26:37 37° 112° (ESE) 20:30:48 437.025 FM, 437.400 FM
Hamsat 01 Oct 20:29:00 20:31:24 15° 258° (WSW) 20:33:46 145.90 MHz
Sapphire 01 Oct 20:41:09 20:45:23 24° 70° (ENE) 20:49:37 437.095 MHz 1200 baud AX-25 AFSK
SO-67 01 Oct 20:50:18 20:53:45 74° 260° (W) 20:57:10 435.3500 MHz FM
PCSat 01 Oct 21:05:42 21:10:55 51° 71° (ENE) 21:16:08 145.825 MHz
STRAND 1 01 Oct 21:24:49 21:28:32 20° 283° (WNW) 21:32:16 ?
HO-68 01 Oct 21:40:58 21:46:20 23° 75° (ENE) 21:51:40 435.675 MHz FM
Sapphire 01 Oct 22:24:21 22:28:32 23° 250° (WSW) 22:32:43 437.095 MHz 1200 baud AX-25 AFSK
Oscar 11 01 Oct 22:46:50 22:50:23 24° 78° (ENE) 22:53:54 145.825 FM, Beacon 2401.500 USB
FUNcube-1 01 Oct 23:12:45 23:15:44 18° 78° (ENE) 23:18:45 145.950 - 145.970 MHz USB
UKube-1 01 Oct 23:15:57 23:20:18 88° 257° (WSW) 23:24:37 145.840 MHz, 145.915 MHz
HO-68 01 Oct 23:27:14 23:33:42 38° 255° (WSW) 23:40:11 435.675 MHz FM
ZACube-1 01 Oct 23:56:34 00:00:57 79° 78° (ENE) 00:05:26 437.345 MHz
Oscar 10/S400 02 Oct 00:19:59 02:32:55 88° 278° (W) 11:14:26 145.825 - 145.975 CW/USB, Beacon 145.810 USB
Oscar 11 02 Oct 00:24:04 00:26:17 14° 258° (WSW) 00:28:30 145.825 FM, Beacon 2401.500 USB
FUNcube-1 02 Oct 00:48:41 00:51:51 20° 259° (WSW) 00:55:04 145.950 - 145.970 MHz USB
AO-40 02 Oct 01:12:04 02:32:13 29° 260° (W) 05:24:41 Beacon 2401.320
Saudisat 1A 02 Oct 01:23:57 01:28:07 44° 68° (ENE) 01:32:18 436.775 MHz
RS-15 02 Oct 01:57:16 02:08:43 67° 111° (ESE) 02:19:37 29.354 - 29.394 USB, Beacon 29.352 USB
JAS-1B 02 Oct 02:35:07 02:39:48 20° 108° (ESE) 02:45:01 435.800 - 435.900 CW/SSB
Oscar 19 02 Oct 02:55:44 03:00:41 51° 102° (ESE) 03:05:38 437.125 CW, 437.150 USB
ITAMSAT 1 02 Oct 03:09:49 03:14:00 25° 103° (ESE) 03:18:10 435.822 SSB
Uribyol 2 02 Oct 03:10:22 03:14:43 27° 103° (ESE) 03:19:03 436.500 FM
PANSAT 02 Oct 03:36:21 03:39:54 37° 30° (NNE) 03:43:28 not established
Oscar 16 02 Oct 03:36:58 03:41:50 46° 282° (WNW) 03:46:44 437.025 USB, Beacon 2401.1428
AO-Echo 02 Oct 03:40:38 03:45:51 79° 102° (ESE) 03:51:11 ?
AO-27 02 Oct 03:47:22 03:52:35 75° 103° (ESE) 03:57:48 436.795 MHz FM
RS-15 02 Oct 04:13:24 04:20:37 19° 292° (WNW) 04:27:45 29.354 - 29.394 USB, Beacon 29.352 USB
Gurwin Techsat 1B 02 Oct 04:15:59 04:21:14 64° 102° (ESE) 04:26:30 435.225 FM
AO-7 02 Oct 04:23:39 04:25:49 11° 108° (ESE) 04:28:00 29.400 - 29.500 MHz
JAS-1B 02 Oct 04:24:06 04:29:54 39° 281° (W) 04:36:42 435.800 - 435.900 CW/SSB
KITSAT 1 02 Oct 04:26:16 04:33:55 48° 70° (ENE) 04:41:34 435.175 FM
TMSAT-1 02 Oct 04:44:07 04:49:25 87° 282° (WNW) 04:54:44 436.925 FM
MaSat-1 02 Oct 04:45:06 04:48:30 20° 106° (ESE) 04:52:00 437.345 MHz
ITAMSAT 1 02 Oct 04:49:24 04:53:13 21° 283° (WNW) 04:57:02 435.822 SSB
Uribyol 2 02 Oct 04:50:22 04:53:54 19° 283° (WNW) 04:57:28 436.500 FM
Uosat F 02 Oct 05:05:06 05:07:58 15° 103° (ESE) 05:10:49 435.120 FM
PANSAT 02 Oct 05:16:40 05:20:00 28° 210° (SSW) 05:23:21 not established
OPAL 02 Oct 05:37:24 05:40:40 17° 75° (ENE) 05:43:55 ?
JAS-2 02 Oct 06:08:49 06:13:39 18° 105° (ESE) 06:18:33 435.800 - 435.900 CW/SSB, 435.910 FM
AO-7 02 Oct 06:09:48 06:18:06 81° 286° (WNW) 06:26:27 29.400 - 29.500 MHz
MaSat-1 02 Oct 06:21:02 06:24:42 22° 288° (WNW) 06:28:27 437.345 MHz
KITSAT 1 02 Oct 06:23:19 06:29:00 21° 249° (WSW) 06:34:44 435.175 FM
SO-50 02 Oct 06:29:21 06:33:55 41° 68° (ENE) 06:38:28 436.795 FM
Uosat F 02 Oct 06:42:04 06:46:28 31° 283° (WNW) 06:50:53 435.120 FM
Hamsat 02 Oct 06:59:16 07:02:50 28° 102° (ESE) 07:06:24 145.90 MHz
OPAL 02 Oct 07:14:46 07:19:15 30° 256° (WSW) 07:23:46 ?
JAS-2 02 Oct 07:50:50 07:58:09 57° 283° (WNW) 08:05:51 435.800 - 435.900 CW/SSB, 435.910 FM
ISS 02 Oct 07:54:04 07:56:48 24° 54° (NE) 07:59:33 145.800 FM
SO-50 02 Oct 08:13:03 08:14:15 11° 247° (WSW) 08:15:28 436.795 FM
STRAND 1 02 Oct 08:17:24 08:22:25 61° 77° (ENE) 08:27:25 ?
UOSAT-12 02 Oct 08:32:31 08:37:04 67° 68° (ENE) 08:41:32 437.025 FM, 437.400 FM
SO-67 02 Oct 08:34:43 08:38:04 54° 101° (E) 08:41:27 435.3500 MHz FM
Hamsat 02 Oct 08:37:49 08:38:31 10° 282° (WNW) 08:39:14 145.90 MHz
Sapphire 02 Oct 09:16:24 09:21:46 74° 109° (ESE) 09:27:08 437.095 MHz 1200 baud AX-25 AFSK
ISS 02 Oct 09:32:52 09:33:18 10° 234° (SW) 09:33:45 145.800 FM
HO-68 02 Oct 09:33:05 09:37:53 19° 105° (ESE) 09:42:40 435.675 MHz FM
PCSat 02 Oct 09:42:01 09:47:13 50° 289° (WNW) 09:52:25 145.825 MHz
Oscar 11 02 Oct 10:55:40 10:59:30 32° 102° (ESE) 11:03:20 145.825 FM, Beacon 2401.500 USB
HO-68 02 Oct 11:18:28 11:25:14 46° 285° (WNW) 11:32:02 435.675 MHz FM
FUNcube-1 02 Oct 11:23:08 11:26:40 24° 101° (ESE) 11:30:08 145.950 - 145.970 MHz USB
UKube-1 02 Oct 11:25:39 11:29:57 64° 282° (WNW) 11:34:17 145.840 MHz, 145.915 MHz
ZACube-1 02 Oct 12:07:43 12:12:04 71° 282° (WNW) 12:16:20 437.345 MHz
FUNcube-1 02 Oct 13:00:40 13:02:46 13° 282° (WNW) 13:04:52 145.950 - 145.970 MHz USB
Saudisat 1A 02 Oct 13:29:52 13:34:13 70° 112° (ESE) 13:38:34 436.775 MHz
RS-15 02 Oct 13:38:22 13:49:36 57° 70° (ENE) 14:01:17 29.354 - 29.394 USB, Beacon 29.352 USB
Oscar 16 02 Oct 14:32:20 14:36:42 27° 77° (ENE) 14:41:02 437.025 USB, Beacon 2401.1428
JAS-1B 02 Oct 14:44:46 14:52:25 32° 79° (E) 14:59:02 435.800 - 435.900 CW/SSB
AO-27 02 Oct 14:46:51 14:48:40 12° 77° (ENE) 14:50:30 436.795 MHz FM
Gurwin Techsat 1B 02 Oct 15:18:31 15:20:11 11° 77° (ENE) 15:21:50 435.225 FM
PANSAT 02 Oct 15:23:39 15:27:17 39° 150° (SSE) 15:30:54 not established
Oscar 19 02 Oct 15:29:25 15:34:32 60° 258° (WSW) 15:39:39 437.125 CW, 437.150 USB
ITAMSAT 1 02 Oct 15:44:01 15:49:09 66° 77° (ENE) 15:54:15 435.822 SSB
Uribyol 2 02 Oct 15:44:32 15:49:41 73° 77° (ENE) 15:54:49 436.500 FM
TMSAT-1 02 Oct 15:44:39 15:48:00 17° 77° (ENE) 15:51:21 436.925 FM
RS-15 02 Oct 15:52:40 16:01:44 26° 247° (WSW) 16:11:09 29.354 - 29.394 USB, Beacon 29.352 USB
AO-Echo 02 Oct 16:10:56 16:15:26 41° 258° (WSW) 16:19:50 ?
Oscar 16 02 Oct 16:12:17 16:15:46 18° 257° (WSW) 16:19:15 437.025 USB, Beacon 2401.1428
AO-27 02 Oct 16:23:05 16:27:54 40° 257° (WSW) 16:32:43 436.795 MHz FM
KITSAT 1 02 Oct 16:34:01 16:41:59 62° 110° (ESE) 16:49:55 435.175 FM
JAS-1B 02 Oct 16:34:33 16:42:35 35° 253° (WSW) 16:49:36 435.800 - 435.900 CW/SSB
AO-7 02 Oct 16:46:23 16:52:14 21° 73° (ENE) 16:58:02 29.400 - 29.500 MHz
Gurwin Techsat 1B 02 Oct 16:54:51 16:59:52 43° 257° (WSW) 17:04:52 435.225 FM
PANSAT 02 Oct 17:04:04 17:07:23 27° 330° (NNW) 17:10:42 not established
TMSAT-1 02 Oct 17:23:05 17:27:39 30° 257° (WSW) 17:32:12 436.925 FM
Uosat F 02 Oct 17:33:14 17:37:46 35° 77° (ENE) 17:42:16 435.120 FM
OPAL 02 Oct 18:07:50 18:12:27 39° 104° (ESE) 18:17:01 ?
KITSAT 1 02 Oct 18:32:43 18:37:06 16° 291° (WNW) 18:41:31 435.175 FM
AO-7 02 Oct 18:36:40 18:44:38 50° 254° (WSW) 18:52:34 29.400 - 29.500 MHz
SO-50 02 Oct 18:42:48 18:47:11 75° 112° (ESE) 18:51:35 436.795 FM
Hamsat 02 Oct 19:06:07 19:10:09 37° 79° (ENE) 19:14:09 145.90 MHz
Uosat F 02 Oct 19:14:05 19:16:15 13° 257° (WSW) 19:18:26 435.120 FM
JAS-2 02 Oct 19:26:12 19:31:36 86° 78° (ENE) 19:36:45 435.800 - 435.900 CW/SSB, 435.910 FM
ISS 02 Oct 19:30:09 19:32:19 16° 126° (SE) 19:34:28 145.800 FM
